Location: Staunton
(38.1490°N, 79.0720°W)
Time: 00:00:42
(UTC-04:00)

ISS - Pass Details

Date: 17 September 2018
Orbit: 403 x 409 km, 51.6° (Epoch: 24 September)

Event Time Altitude Azimuth Distance (km) Brightness Sun altitude
Exits shadow 05:05:25 44° 36° (NE) 570 -2.8 -22.7°
Drops below altitude 10° 05:08:32 10° 109° (ESE) 1,451 -0.4 -22.1°
Sets 05:10:39 0° 116° (ESE) 2,306 0.6 -21.7°
